Time,TemperatureF,DewpointF,PressureIn,WindDirection,WindDirectionDegrees,WindSpeedMPH,WindSpeedGustMPH,Humidity,HourlyPrecipIn,Conditions,Clouds,dailyrainin,SoftwareType,DateUTC
2013-02-13 00:01:00,30.5,26.0,29.96,WSW,241,3.0,7.0,83,0.00,,,0.00,weatherlink.com 1.10,2013-02-13 06:01:00,
2013-02-13 00:16:00,30.5,26.0,29.95,WNW,288,2.0,7.0,83,0.00,,,0.00,weatherlink.com 1.10,2013-02-13 06:16:00,
2013-02-13 00:31:00,30.6,26.0,29.95,SW,225,5.0,9.0,82,0.00,,,0.00,weatherlink.com 1.10,2013-02-13 06:31:00,
2013-02-13 00:47:00,30.5,26.0,29.94,WSW,249,3.0,8.0,82,0.00,,,0.00,weatherlink.com 1.10,2013-02-13 06:47:00,
2013-02-13 01:02:00,30.4,26.0,29.93,West,260,5.0,8.0,82,0.00,,,0.00,weatherlink.com 1.10,2013-02-13 07:02:00,
2013-02-13 01:17:00,30.6,26.0,29.93,WSW,258,7.0,8.0,82,0.00,,,0.00,weatherlink.com 1.10,2013-02-13 07:17:00,
2013-02-13 01:32:00,30.8,26.0,29.92,West,263,6.0,9.0,82,0.00,,,0.00,weatherlink.com 1.10,2013-02-13 07:32:00,
2013-02-13 01:47:00,30.9,26.0,29.92,WSW,258,5.0,9.0,82,0.00,,,0.00,weatherlink.com 1.10,2013-02-13 07:47:00,
2013-02-13 02:02:00,30.8,26.0,29.91,WSW,249,4.0,8.0,82,0.00,,,0.00,weatherlink.com 1.10,2013-02-13 08:02:00,
2013-02-13 02:17:00,30.7,26.0,29.91,WSW,252,5.0,9.0,82,0.00,,,0.00,weatherlink.com 1.10,2013-02-13 08:17:00,
2013-02-13 02:32:00,30.6,26.0,29.91,WSW,254,2.0,8.0,83,0.00,,,0.00,weatherlink.com 1.10,2013-02-13 08:32:00,
2013-02-13 02:47:00,30.6,26.0,29.90,West,261,2.0,6.0,83,0.00,,,0.00,weatherlink.com 1.10,2013-02-13 08:47:00,
2013-02-13 03:02:00,30.6,26.0,29.89,WSW,246,3.0,8.0,83,0.00,,,0.00,weatherlink.com 1.10,2013-02-13 09:02:00,
2013-02-13 03:17:00,30.5,26.0,29.89,West,262,3.0,5.0,83,0.00,,,0.00,weatherlink.com 1.10,2013-02-13 09:17:00,
2013-02-13 03:32:00,30.5,26.0,29.88,West,263,3.0,7.0,83,0.00,,,0.00,weatherlink.com 1.10,2013-02-13 09:32:00,
2013-02-13 03:47:00,30.3,26.0,29.88,West,269,3.0,8.0,84,0.00,,,0.00,weatherlink.com 1.10,2013-02-13 09:47:00,
2013-02-13 04:03:00,30.1,26.0,29.87,West,275,3.0,9.0,84,0.00,,,0.00,weatherlink.com 1.10,2013-02-13 10:03:00,
2013-02-13 04:18:00,30.1,26.0,29.87,WSW,244,4.0,8.0,84,0.00,,,0.00,weatherlink.com 1.10,2013-02-13 10:18:00,
2013-02-13 04:33:00,29.9,26.0,29.86,WSW,250,3.0,8.0,84,0.00,,,0.00,weatherlink.com 1.10,2013-02-13 10:33:00,
2013-02-13 04:48:00,29.7,25.0,29.86,WSW,245,2.0,7.0,84,0.00,,,0.00,weatherlink.com 1.10,2013-02-13 10:48:00,
2013-02-13 05:03:00,29.5,26.0,29.85,West,265,5.0,7.0,85,0.00,,,0.00,weatherlink.com 1.10,2013-02-13 11:03:00,
2013-02-13 05:18:00,29.3,25.0,29.85,SW,232,3.0,8.0,85,0.00,,,0.00,weatherlink.com 1.10,2013-02-13 11:18:00,
2013-02-13 05:33:00,29.2,25.0,29.85,West,274,5.0,8.0,85,0.00,,,0.00,weatherlink.com 1.10,2013-02-13 11:33:00,
2013-02-13 05:48:00,29.0,25.0,29.84,West,268,3.0,6.0,85,0.00,,,0.00,weatherlink.com 1.10,2013-02-13 11:48:00,
2013-02-13 06:03:00,29.0,25.0,29.84,WSW,247,7.0,8.0,85,0.00,,,0.00,weatherlink.com 1.10,2013-02-13 12:03:00,
2013-02-13 06:18:00,28.8,25.0,29.83,West,278,4.0,7.0,85,0.00,,,0.00,weatherlink.com 1.10,2013-02-13 12:18:00,
2013-02-13 06:33:00,28.7,25.0,29.83,West,259,6.0,8.0,85,0.00,,,0.00,weatherlink.com 1.10,2013-02-13 12:33:00,
2013-02-13 06:48:00,28.5,25.0,29.83,WSW,244,4.0,9.0,85,0.00,,,0.00,weatherlink.com 1.10,2013-02-13 12:48:00,
2013-02-13 07:03:00,28.2,25.0,29.84,West,266,2.0,6.0,86,0.00,,,0.00,weatherlink.com 1.10,2013-02-13 13:03:00,
2013-02-13 07:18:00,28.3,25.0,29.84,West,259,5.0,7.0,86,0.00,,,0.00,weatherlink.com 1.10,2013-02-13 13:18:00,
2013-02-13 07:34:00,28.8,25.0,29.84,WSW,242,3.0,9.0,85,0.00,,,0.00,weatherlink.com 1.10,2013-02-13 13:34:00,
2013-02-13 07:49:00,29.3,25.0,29.84,West,278,4.0,10.0,84,0.00,,,0.00,weatherlink.com 1.10,2013-02-13 13:49:00,
2013-02-13 08:04:00,29.7,25.0,29.84,West,261,6.0,10.0,84,0.00,,,0.00,weatherlink.com 1.10,2013-02-13 14:04:00,
2013-02-13 08:19:00,30.3,26.0,29.84,West,267,6.0,10.0,83,0.00,,,0.00,weatherlink.com 1.10,2013-02-13 14:19:00,
2013-02-13 08:34:00,31.2,27.0,29.84,West,279,3.0,7.0,84,0.00,,,0.00,weatherlink.com 1.10,2013-02-13 14:34:00,
2013-02-13 08:49:00,32.1,28.0,29.84,West,260,4.0,9.0,84,0.00,,,0.00,weatherlink.com 1.10,2013-02-13 14:49:00,
2013-02-13 09:04:00,32.8,28.0,29.84,West,271,3.0,8.0,83,0.00,,,0.00,weatherlink.com 1.10,2013-02-13 15:04:00,
2013-02-13 09:19:00,33.5,29.0,29.84,WSW,254,2.0,8.0,83,0.00,,,0.00,weatherlink.com 1.10,2013-02-13 15:19:00,
2013-02-13 09:34:00,34.5,30.0,29.84,WSW,249,4.0,8.0,83,0.00,,,0.00,weatherlink.com 1.10,2013-02-13 15:34:00,
2013-02-13 09:50:00,35.3,30.0,29.84,West,277,3.0,9.0,82,0.00,,,0.00,weatherlink.com 1.10,2013-02-13 15:50:00,
2013-02-13 10:05:00,36.0,31.0,29.84,NW,321,3.0,8.0,82,0.00,,,0.00,weatherlink.com 1.10,2013-02-13 16:05:00,
2013-02-13 10:20:00,36.5,31.0,29.83,WNW,294,3.0,10.0,81,0.00,,,0.00,weatherlink.com 1.10,2013-02-13 16:20:00,
2013-02-13 10:35:00,37.0,32.0,29.84,WSW,253,5.0,8.0,81,0.00,,,0.00,weatherlink.com 1.10,2013-02-13 16:35:00,
2013-02-13 10:50:00,38.1,32.0,29.83,West,265,6.0,8.0,79,0.00,,,0.00,weatherlink.com 1.10,2013-02-13 16:50:00,
2013-02-13 11:05:00,38.9,32.0,29.83,WNW,282,5.0,9.0,76,0.00,,,0.00,weatherlink.com 1.10,2013-02-13 17:05:00,
2013-02-13 11:20:00,39.8,33.0,29.82,WSW,245,3.0,8.0,78,0.00,,,0.00,weatherlink.com 1.10,2013-02-13 17:20:00,
2013-02-13 11:35:00,40.8,33.0,29.82,West,261,3.0,9.0,74,0.00,,,0.00,weatherlink.com 1.10,2013-02-13 17:35:00,
2013-02-13 11:50:00,41.5,33.0,29.82,WNW,288,4.0,9.0,73,0.00,,,0.00,weatherlink.com 1.10,2013-02-13 17:50:00,
2013-02-13 12:05:00,42.3,34.0,29.82,NW,312,3.0,10.0,72,0.00,,,0.00,weatherlink.com 1.10,2013-02-13 18:05:00,
2013-02-13 12:20:00,42.5,34.0,29.81,West,263,3.0,12.0,72,0.00,,,0.00,weatherlink.com 1.10,2013-02-13 18:20:00,
2013-02-13 12:35:00,43.4,35.0,29.81,West,263,3.0,10.0,71,0.00,,,0.00,weatherlink.com 1.10,2013-02-13 18:35:00,
2013-02-13 12:50:00,43.4,33.0,29.80,NNW,344,4.0,10.0,67,0.00,,,0.00,weatherlink.com 1.10,2013-02-13 18:50:00,
2013-02-13 13:05:00,43.7,33.0,29.79,West,277,5.0,13.0,67,0.00,,,0.00,weatherlink.com 1.10,2013-02-13 19:05:00,
2013-02-13 13:21:00,43.9,34.0,29.79,NW,317,5.0,13.0,68,0.00,,,0.00,weatherlink.com 1.10,2013-02-13 19:21:00,
2013-02-13 13:36:00,44.4,34.0,29.79,WNW,300,6.0,12.0,66,0.00,,,0.00,weatherlink.com 1.10,2013-02-13 19:36:00,
2013-02-13 13:51:00,44.6,34.0,29.79,West,269,7.0,14.0,66,0.00,,,0.00,weatherlink.com 1.10,2013-02-13 19:51:00,
2013-02-13 14:06:00,44.7,34.0,29.79,WNW,296,8.0,13.0,66,0.00,,,0.00,weatherlink.com 1.10,2013-02-13 20:06:00,
2013-02-13 14:21:00,44.7,34.0,29.79,WNW,284,8.0,16.0,66,0.00,,,0.00,weatherlink.com 1.10,2013-02-13 20:21:00,
2013-02-13 14:36:00,45.1,34.0,29.79,West,267,7.0,13.0,66,0.00,,,0.00,weatherlink.com 1.10,2013-02-13 20:36:00,
2013-02-13 14:51:00,44.5,34.0,29.79,West,260,6.0,11.0,66,0.00,,,0.00,weatherlink.com 1.10,2013-02-13 20:51:00,
2013-02-13 15:06:00,44.2,34.0,29.79,WNW,286,3.0,13.0,68,0.00,,,0.00,weatherlink.com 1.10,2013-02-13 21:06:00,
2013-02-13 15:21:00,44.1,34.0,29.79,WNW,301,8.0,14.0,67,0.00,,,0.00,weatherlink.com 1.10,2013-02-13 21:21:00,
2013-02-13 15:36:00,44.1,34.0,29.80,West,279,6.0,10.0,68,0.00,,,0.00,weatherlink.com 1.10,2013-02-13 21:36:00,
2013-02-13 15:51:00,44.2,34.0,29.80,West,275,3.0,9.0,68,0.00,,,0.00,weatherlink.com 1.10,2013-02-13 21:51:00,
2013-02-13 16:06:00,44.1,34.0,29.80,WSW,240,7.0,12.0,68,0.00,,,0.00,weatherlink.com 1.10,2013-02-13 22:06:00,
2013-02-13 16:21:00,44.2,34.0,29.80,NW,306,6.0,8.0,67,0.00,,,0.00,weatherlink.com 1.10,2013-02-13 22:21:00,
2013-02-13 16:37:00,43.7,33.0,29.80,WNW,292,3.0,10.0,67,0.00,,,0.00,weatherlink.com 1.10,2013-02-13 22:37:00,
2013-02-13 16:52:00,43.4,33.0,29.80,WNW,290,1.0,5.0,68,0.00,,,0.00,weatherlink.com 1.10,2013-02-13 22:52:00,
2013-02-13 17:07:00,43.0,33.0,29.80,West,275,0.0,4.0,69,0.00,,,0.00,weatherlink.com 1.10,2013-02-13 23:07:00,
2013-02-13 17:22:00,41.4,33.0,29.80,WNW,284,1.0,3.0,72,0.00,,,0.00,weatherlink.com 1.10,2013-02-13 23:22:00,
2013-02-13 17:37:00,39.9,33.0,29.81,West,277,2.0,5.0,75,0.00,,,0.00,weatherlink.com 1.10,2013-02-13 23:37:00,
2013-02-13 17:52:00,39.2,33.0,29.81,WNW,297,3.0,6.0,77,0.00,,,0.00,weatherlink.com 1.10,2013-02-13 23:52:00,
2013-02-13 18:07:00,37.8,32.0,29.81,West,271,1.0,5.0,78,0.00,,,0.00,weatherlink.com 1.10,2013-02-14 00:07:00,
2013-02-13 18:22:00,37.0,31.0,29.82,SW,229,3.0,3.0,79,0.00,,,0.00,weatherlink.com 1.10,2013-02-14 00:22:00,
2013-02-13 18:37:00,37.2,31.0,29.81,West,259,1.0,5.0,79,0.00,,,0.00,weatherlink.com 1.10,2013-02-14 00:37:00,
2013-02-13 18:52:00,37.8,32.0,29.81,WSW,256,2.0,4.0,78,0.00,,,0.00,weatherlink.com 1.10,2013-02-14 00:52:00,
2013-02-13 19:07:00,37.7,31.0,29.81,WSW,256,1.0,4.0,78,0.00,,,0.00,weatherlink.com 1.10,2013-02-14 01:07:00,
2013-02-13 19:22:00,37.6,32.0,29.81,West,262,2.0,4.0,80,0.00,,,0.00,weatherlink.com 1.10,2013-02-14 01:22:00,
2013-02-13 19:37:00,37.7,32.0,29.81,WSW,253,2.0,4.0,79,0.00,,,0.00,weatherlink.com 1.10,2013-02-14 01:37:00,
2013-02-13 19:52:00,37.9,32.0,29.81,WSW,254,2.0,5.0,79,0.00,,,0.00,weatherlink.com 1.10,2013-02-14 01:52:00,
2013-02-13 20:08:00,37.9,32.0,29.80,SW,221,2.0,6.0,78,0.00,,,0.00,weatherlink.com 1.10,2013-02-14 02:08:00,
2013-02-13 20:23:00,37.9,31.0,29.80,SSW,210,2.0,5.0,77,0.00,,,0.00,weatherlink.com 1.10,2013-02-14 02:23:00,
2013-02-13 20:38:00,38.0,31.0,29.80,WSW,254,4.0,6.0,77,0.00,,,0.00,weatherlink.com 1.10,2013-02-14 02:38:00,
2013-02-13 20:53:00,37.8,31.0,29.80,SSW,213,1.0,6.0,77,0.00,,,0.00,weatherlink.com 1.10,2013-02-14 02:53:00,
2013-02-13 21:08:00,38.1,31.0,29.80,WSW,238,4.0,8.0,76,0.00,,,0.00,weatherlink.com 1.10,2013-02-14 03:08:00,
2013-02-13 21:23:00,38.2,31.0,29.80,SW,223,4.0,7.0,76,0.00,,,0.00,weatherlink.com 1.10,2013-02-14 03:23:00,
2013-02-13 21:38:00,38.2,31.0,29.79,SW,236,3.0,9.0,76,0.00,,,0.00,weatherlink.com 1.10,2013-02-14 03:38:00,
2013-02-13 21:53:00,38.1,32.0,29.79,WSW,238,4.0,8.0,77,0.00,,,0.00,weatherlink.com 1.10,2013-02-14 03:53:00,
2013-02-13 22:08:00,38.0,31.0,29.79,SSW,200,5.0,9.0,77,0.00,,,0.00,weatherlink.com 1.10,2013-02-14 04:08:00,
2013-02-13 22:38:00,37.8,32.0,29.78,SSW,207,5.0,9.0,79,0.00,,,0.00,weatherlink.com 1.10,2013-02-14 04:38:00,
2013-02-13 23:08:00,38.1,32.0,29.77,SSW,207,5.0,11.0,79,0.00,,,0.00,weatherlink.com 1.10,2013-02-14 05:08:00,
2013-02-13 23:24:00,38.3,32.0,29.77,WSW,252,2.0,12.0,79,0.00,,,0.00,weatherlink.com 1.10,2013-02-14 05:24:00,
2013-02-13 23:39:00,38.6,32.0,29.77,SW,218,3.0,11.0,78,0.00,,,0.00,weatherlink.com 1.10,2013-02-14 05:39:00,
2013-02-13 23:54:00,38.6,32.0,29.76,SW,220,1.0,9.0,78,0.00,,,0.00,weatherlink.com 1.10,2013-02-14 05:54:00,